Flag for U.S.A. Weather past 2 weeks in Salt Lake City, Utah, U.S.A.

Now
43 °F

Light rain. Mostly cloudy.


Feels Like: 41 °F
Forecast: 35 / 43 °F
Wind: 3 mph from Northwest

Location: Salt Lake City International Airport

Current Time: Dec 22, 2014 at 1:40:21 AM

Latest Report: Dec 22, 2014 at 12:53 AM


Visibility: 10 mi

Pressure: 30.01 "Hg

Humidity: 76%

Dew point: 36 °F

Location of Salt Lake CityLocation

Historic Weather in Salt Lake City — Graph

°F

Salt Lake City temperature yesterday

Maximum temperature yesterday: 46 °F (at 7:53 PM)
Minimum temperature yesterday: 39 °F (at 5:53 AM)
Average temperature yesterday: 42 °F

Past Weeks' High & Low Weather Summary

 TemperatureHumidityPressure
High63 °F (Dec 12, 12:53 PM)96% (Dec 18, 6:53 AM)30.38 "Hg (Dec 18, 6:53 AM)
Low24 °F (Dec 15, 5:53 AM)25% (Dec 12, 2:53 PM)29.72 "Hg (Dec 12, 2:53 PM)
Average40 °F72%30.09 "Hg
* Reported Dec 6 11:53 PM — Dec 21 11:53 PM, Salt Lake City, Weather by CustomWeather, © 2014

Note: Actual official high and low records may vary slightly from our data, if they occured in-between our weather recording intervals... More about our weather records

Advertising

Salt Lake City weather history for previous 24 hours

 ConditionsComfort  
Time TempWeatherWind HumidityBarometerVisibility
11:53 PM
Dec 21
43 °FMostly cloudy.3 mph79%30.02 "Hg10 mi
10:53 PM42 °FMostly cloudy.5 mph85%30.02 "Hg10 mi
9:53 PM44 °FOvercast.7 mph79%30.00 "Hg10 mi
8:53 PM45 °FMostly cloudy.13 mph82%29.98 "Hg10 mi
7:53 PM46 °FOvercast.13 mph83%29.96 "Hg10 mi
6:53 PM44 °FOvercast.No wind85%29.95 "Hg10 mi
5:53 PM43 °FOvercast.8 mph89%29.91 "Hg10 mi
4:53 PM43 °FLight rain. Mostly cloudy.12 mph86%29.90 "Hg10 mi
3:53 PM43 °FMostly cloudy.7 mph86%29.90 "Hg10 mi
2:53 PM43 °FMostly cloudy.10 mph86%29.89 "Hg10 mi
1:53 PM43 °FMostly cloudy.15 mph86%29.90 "Hg10 mi
12:53 PM41 °FRain. More clouds than sun.12 mph89%29.93 "Hg7 mi
11:53 AM41 °FLight rain. Overcast.14 mph86%29.95 "Hg9 mi
10:53 AM40 °FLight rain. Overcast.16 mph89%29.98 "Hg7 mi
9:53 AM39 °FRain. Fog.13 mph93%29.98 "Hg6 mi
8:53 AM39 °FLight rain. Overcast.20 mph86%29.96 "Hg8 mi
7:53 AM39 °FLight rain. Overcast.9 mph89%29.96 "Hg7 mi
6:53 AM39 °FLight rain. Mostly cloudy.16 mph86%29.98 "Hg9 mi
5:53 AM39 °FRain. Overcast.12 mph89%29.96 "Hg8 mi
4:53 AM41 °FLight rain. Overcast.12 mph80%29.98 "Hg7 mi
3:53 AM42 °FLight rain. Overcast.12 mph73%29.98 "Hg10 mi
2:53 AM43 °FLight rain. Mostly cloudy.10 mph68%29.99 "Hg10 mi
1:53 AM41 °FOvercast.10 mph74%30.00 "Hg10 mi
Weather by CustomWeather, © 2014

See weather overviewHow to use our weather pages